D8954 Weather Reports


Display with metric or nautical units.
time (UTC)temp
F
wind
direction
speed
MPH
gust
MPH
rain 1hr
in
rain 24hr
in
rain mn
in
humidity
%
barometer
mb
20260905081005 65 220 2.0 6.0 0.00 0.02 0.02 74 1020.1
20260905080503 65 317 2.0 9.0 0.00 0.02 0.02 75 1020.1
20260905080003 65 318 6.0 10.0 0.00 0.02 0.02 74 1020.0
20260905074504 65 190 1.0 8.0 0.00 0.02 0.02 79 1019.9
20260905074004 64 189 3.0 7.0 0.00 0.02 0.02 80 1019.9
20260905073504 64 215 1.0 9.0 0.00 0.02 0.02 80 1019.9
20260905073004 64 250 4.0 8.0 0.00 0.02 0.02 80 1019.8
20260905072503 64 210 1.0 3.0 0.00 0.02 0.02 81 1019.8
20260905072003 64 343 1.0 3.0 0.00 0.02 0.02 82 1019.8
20260905071005 63 205 3.0 7.0 0.00 0.02 0.02 83 1019.7
20260905070504 62 217 0.0 2.0 0.00 0.02 0.02 84 1019.6
20260905070004 62 217 0.0 3.0 0.00 0.02 0.02 84 1019.7
20260905065504 62 217 3.0 5.0 0.00 0.02 0.02 83 1019.6
20260905065003 62 223 4.0 8.0 0.00 0.02 0.02 83 1019.6
20260905064504 63 210 2.0 3.0 0.00 0.02 0.02 84 1019.5
20260905064004 62 217 0.0 2.0 0.00 0.02 0.02 85 1019.6
20260905063504 61 219 0.0 2.0 0.00 0.02 0.02 86 1019.6
20260905063004 61 220 1.0 3.0 0.00 0.02 0.02 85 1019.6
20260905062504 61 266 2.0 3.0 0.00 0.02 0.02 85 1019.6
20260905062003 61 277 2.0 3.0 0.00 0.02 0.02 86 1019.5
20260905061504 61 217 0.0 1.0 0.00 0.02 0.02 86 1019.4
20260905061004 60 217 1.0 3.0 0.00 0.02 0.02 87 1019.3
20260905060504 60 211 2.0 3.0 0.00 0.02 0.02 87 1019.1
20260905060004 60 208 1.0 3.0 0.00 0.02 0.02 86 1019.0
20260905055504 60 211 0.0 0.0 0.00 0.02 0.02 86 1019.0
20260905055004 60 211 0.0 0.0 0.00 0.02 0.02 88 1019.1
20260905054504 59 211 0.0 0.0 0.00 0.02 0.02 88 1019.0
20260905054004 58 211 0.0 0.0 0.00 0.02 0.02 88 1018.9
20260905053504 58 211 0.0 0.0 0.00 0.02 0.02 87 1018.9
20260905053003 58 211 0.0 0.0 0.00 0.02 0.02 87 1018.8
20260905052504 59 211 0.0 2.0 0.00 0.02 0.02 87 1018.7
20260905052004 59 211 0.0 0.0 0.00 0.02 0.02 87 1018.7
20260905051504 59 211 0.0 0.0 0.00 0.02 0.02 87 1018.7
20260905051004 59 211 0.0 2.0 0.00 0.02 0.02 87 1018.6
20260905050504 59 211 0.0 2.0 0.00 0.02 0.02 87 1018.5
20260905050005 59 211 0.0 2.0 0.00 0.02 0.02 87 1018.5
20260905045506 59 211 0.0 2.0 0.00 0.02 0.02 86 1018.4
20260905044505 59 211 0.0 0.0 0.00 0.02 0.02 86 1018.4
20260905044005 59 211 0.0 2.0 0.00 0.02 0.02 86 1018.2
20260905043505 60 211 0.0 2.0 0.00 0.02 0.02 86 1018.2
20260905043005 60 211 0.0 2.0 0.00 0.02 0.02 86 1018.2
20260905042005 60 211 1.0 2.0 0.00 0.02 0.02 86 1018.0
20260905041505 60 211 0.0 1.0 0.00 0.02 0.02 86 1018.0
20260905041006 59 211 0.0 2.0 0.00 0.02 0.02 86 1018.0
20260905040505 59 211 0.0 2.0 0.00 0.02 0.02 86 1017.9
20260905040006 59 211 2.0 3.0 0.00 0.02 0.02 86 1017.8
20260905035505 59 209 1.0 3.0 0.00 0.02 0.02 86 1017.8
20260905035006 59 209 2.0 3.0 0.00 0.02 0.02 86 1017.8
20260905034005 59 207 1.0 2.0 0.00 0.02 0.02 87 1017.8
20260905033504 59 206 1.0 2.0 0.00 0.02 0.02 87 1017.8
20260905033004 59 206 0.0 1.0 0.00 0.02 0.02 87 1017.7
20260905032504 59 206 0.0 2.0 0.00 0.02 0.02 87 1017.7
20260905031505 59 205 1.0 1.0 0.00 0.02 0.02 88 1017.5
20260905030505 58 205 0.0 0.0 0.00 0.02 0.02 88 1017.5
20260905030004 58 205 0.0 2.0 0.00 0.02 0.02 88 1017.5
20260905025504 58 205 0.0 2.0 0.00 0.02 0.02 88 1017.4
20260905024504 58 205 1.0 2.0 0.00 0.02 0.02 88 1017.2
20260905024005 58 205 0.0 1.0 0.00 0.02 0.02 88 1017.0
20260905023504 58 205 0.0 1.0 0.00 0.02 0.02 88 1017.1
20260905023004 58 205 1.0 1.0 0.00 0.02 0.02 88 1017.2
20260905021505 58 205 1.0 1.0 0.01 0.02 0.02 87 1017.1
20260905021005 58 205 0.0 2.0 0.01 0.02 0.02 87 1017.1
20260905020004 58 205 0.0 2.0 0.01 0.02 0.02 87 1017.0
20260905015504 58 205 0.0 2.0 0.01 0.02 0.02 87 1016.9
20260905015005 58 205 1.0 3.0 0.02 0.02 0.02 86 1016.8
20260905014005 59 202 1.0 2.0 0.02 0.02 0.02 86 1016.9
20260905013504 59 202 1.0 2.0 0.02 0.02 0.02 85 1016.9
20260905013004 59 201 2.0 3.0 0.02 0.02 0.02 85 1016.9
20260905012504 59 294 0.0 2.0 0.01 0.01 0.01 85 1017.1
20260905011005 59 288 1.0 2.0 0.01 0.01 0.01 83 1017.0
20260905010505 59 296 0.0 2.0 0.01 0.01 0.01 82 1017.2
20260905010005 60 296 1.0 2.0 0.01 0.01 0.01 81 1017.0
20260905005505 60 331 0.0 3.0 0.01 0.01 0.01 80 1016.9
20260905005004 60 344 1.0 5.0 0.00 0.00 0.00 79 1016.7
20260905004504 61 275 2.0 3.0 0.00 0.00 0.00 77 1016.5
20260905004005 61 335 0.0 2.0 0.00 0.00 0.00 76 1016.3
20260905003505 61 335 1.0 3.0 0.00 0.00 0.00 76 1016.4
20260905003004 61 311 3.0 5.0 0.00 0.00 0.00 76 1016.5
20260905002504 61 243 1.0 3.0 0.00 0.00 0.00 76 1016.6
20260905002005 61 233 1.0 2.0 0.00 0.00 0.00 76 1016.3
20260905001505 61 328 0.0 2.0 0.00 0.00 0.00 76 1016.5
20260905001005 61 328 0.0 2.0 0.00 0.00 0.00 76 1016.5
20260905000005 62 0 1.0 5.0 0.00 0.00 0.00 76 1016.4
20260904235505 62 335 3.0 8.0 0.00 0.00 0.00 76 1016.4
20260904234505 62 350 2.0 5.0 0.00 0.00 0.00 76 1016.3
20260904234004 62 6 4.0 8.0 0.00 0.00 0.00 76 1016.3
20260904233504 62 358 2.0 7.0 0.00 0.00 0.00 76 1016.1
20260904233004 62 6 3.0 3.0 0.00 0.00 0.00 76 1016.0
20260904232504 62 48 4.0 7.0 0.00 0.00 0.00 76 1015.9
20260904232005 62 354 5.0 12.0 0.00 0.00 0.00 76 1015.9
20260904231504 62 356 5.0 8.0 0.00 0.00 0.00 76 1015.9
20260904231006 62 341 1.0 7.0 0.00 0.00 0.00 77 1015.9
20260904230504 62 332 2.0 3.0 0.00 0.00 0.00 77 1016.1
20260904230004 62 304 3.0 10.0 0.00 0.00 0.00 77 1016.2
20260904225504 62 17 5.0 12.0 0.00 0.00 0.00 77 1016.2
20260904225005 62 329 5.0 10.0 0.00 0.00 0.00 76 1016.2
20260904224504 62 7 5.0 14.0 0.00 0.00 0.00 77 1016.2
20260904223504 62 25 6.0 10.0 0.00 0.00 0.00 77 1016.0
20260904223004 63 34 5.0 10.0 0.00 0.00 0.00 77 1016.1
20260904222505 63 15 5.0 10.0 0.00 0.00 0.00 76 1016.1
20260904222004 64 10 5.0 14.0 0.00 0.00 0.00 75 1016.0
20260904221504 64 355 4.0 6.0 0.00 0.00 0.00 75 1015.7
20260904221005 64 32 5.0 8.0 0.00 0.00 0.00 74 1015.6
20260904220504 65 9 3.0 9.0 0.00 0.00 0.00 75 1015.6
20260904220004 65 48 7.0 13.0 0.00 0.00 0.00 74 1015.8
20260904215504 65 23 5.0 12.0 0.00 0.00 0.00 74 1016.0
20260904215004 66 358 10.0 16.0 0.00 0.00 0.00 73 1015.8
20260904214504 66 358 10.0 20.0 0.00 0.00 0.00 73 1015.8
20260904214005 67 6 5.0 13.0 0.00 0.00 0.00 72 1015.5
20260904213504 67 4 8.0 16.0 0.00 0.00 0.00 72 1015.6
20260904212504 68 12 9.0 18.0 0.00 0.00 0.00 71 1015.3
20260904212005 68 6 10.0 20.0 0.00 0.00 0.00 71 1015.2
20260904211005 70 24 12.0 25.0 0.00 0.00 0.00 68 1015.0
20260904210504 72 356 13.0 29.0 0.00 0.00 0.00 66 1014.7
20260904210004 74 12 10.0 20.0 0.00 0.00 0.00 63 1014.4
20260904205504 75 296 7.0 18.0 0.00 0.00 0.00 62 1014.1
20260904205005 75 303 2.0 9.0 0.00 0.00 0.00 62 1013.5
20260904204004 76 301 3.0 7.0 0.00 0.00 0.00 62 1013.5
20260904202504 76 268 1.0 5.0 0.00 0.00 0.00 62 1013.3
20260904201504 76 150 3.0 7.0 0.00 0.00 0.00 61 1013.2
20260904201005 76 291 3.0 9.0 0.00 0.00 0.00 61 1013.1
20260904200504 76 310 5.0 12.0 0.00 0.00 0.00 61 1013.1
20260904195504 76 272 2.0 5.0 0.00 0.00 0.00 61 1012.9
20260904195004 76 152 1.0 8.0 0.00 0.00 0.00 61 1012.8
20260904194504 76 273 1.0 3.0 0.00 0.00 0.00 62 1012.7
20260904194004 76 243 3.0 8.0 0.00 0.00 0.00 61 1012.7
20260904193506 76 168 1.0 6.0 0.00 0.00 0.00 61 1012.6
20260904193005 76 274 2.0 5.0 0.00 0.00 0.00 62 1012.6
20260904192504 75 315 3.0 8.0 0.00 0.00 0.00 62 1012.6
20260904192005 75 274 1.0 5.0 0.00 0.00 0.00 62 1012.5
20260904191506 76 275 1.0 3.0 0.00 0.00 0.00 61 1012.4
20260904191005 76 269 1.0 3.0 0.00 0.00 0.00 61 1012.4
20260904190504 77 213 1.0 6.0 0.00 0.00 0.00 60 1012.3
20260904190004 77 198 2.0 6.0 0.00 0.00 0.00 58 1012.3
20260904185004 77 219 2.0 7.0 0.00 0.00 0.00 58 1012.2
20260904184504 78 246 2.0 5.0 0.00 0.00 0.00 57 1012.2
20260904184004 78 238 1.0 7.0 0.00 0.00 0.00 57 1012.2
20260904183505 78 249 1.0 3.0 0.00 0.00 0.00 56 1012.1
20260904183005 79 282 1.0 7.0 0.00 0.00 0.00 56 1012.1
20260904182504 79 236 2.0 5.0 0.00 0.00 0.00 55 1012.2
20260904182005 79 45 2.0 13.0 0.00 0.00 0.00 55 1012.1
20260904181505 79 314 2.0 16.0 0.00 0.00 0.00 54 1012.1
20260904180504 79 192 2.0 13.0 0.00 0.00 0.00 54 1012.1
20260904180006 79 299 2.0 12.0 0.00 0.00 0.00 54 1011.9
20260904175004 80 324 3.0 10.0 0.00 0.00 0.00 53 1012.1
20260904174506 80 153 3.0 7.0 0.00 0.00 0.00 53 1012.0
20260904174004 80 211 2.0 10.0 0.00 0.00 0.00 53 1011.9
20260904173504 80 224 2.0 9.0 0.00 0.00 0.00 52 1011.9
20260904172504 80 188 3.0 7.0 0.00 0.00 0.00 51 1011.8
20260904172004 80 26 2.0 5.0 0.00 0.00 0.00 51 1011.8
20260904171504 80 326 2.0 5.0 0.00 0.00 0.00 52 1011.8
20260904171005 81 289 5.0 8.0 0.00 0.00 0.00 51 1011.8
20260904170504 80 140 2.0 9.0 0.00 0.00 0.00 52 1011.8
20260904170004 81 299 4.0 10.0 0.00 0.00 0.00 51 1011.8
20260904165504 81 249 3.0 9.0 0.00 0.00 0.00 51 1011.8
20260904165005 81 261 4.0 12.0 0.00 0.00 0.00 51 1012.0
20260904164505 81 239 2.0 9.0 0.00 0.00 0.00 51 1011.9
20260904163505 81 204 4.0 10.0 0.00 0.00 0.00 52 1012.0
20260904163005 81 330 3.0 7.0 0.00 0.00 0.00 52 1011.9
20260904162505 81 283 5.0 12.0 0.00 0.00 0.00 52 1012.0
20260904161504 81 237 3.0 12.0 0.00 0.00 0.00 52 1011.9
20260904161005 82 219 3.0 6.0 0.00 0.00 0.00 52 1012.0
20260904160504 81 327 2.0 7.0 0.00 0.00 0.00 52 1011.9
20260904160004 81 245 3.0 9.0 0.00 0.00 0.00 51 1011.9
20260904155504 81 217 4.0 9.0 0.00 0.00 0.00 51 1011.9
20260904155004 82 221 6.0 17.0 0.00 0.00 0.00 50 1011.9
20260904154504 82 233 6.0 12.0 0.00 0.00 0.00 50 1011.9
20260904154004 83 285 3.0 12.0 0.00 0.00 0.00 50 1011.9
20260904153504 83 208 5.0 12.0 0.00 0.00 0.00 50 1011.8
20260904153005 83 220 3.0 12.0 0.00 0.00 0.00 50 1011.7
20260904152504 83 225 4.0 12.0 0.00 0.00 0.00 50 1011.7
20260904152004 83 203 4.0 12.0 0.00 0.00 0.00 50 1011.7
20260904151005 83 248 2.0 8.0 0.00 0.00 0.00 52 1011.7
20260904150504 83 231 5.0 10.0 0.00 0.00 0.00 50 1011.7
20260904150004 83 259 5.0 13.0 0.00 0.00 0.00 49 1011.7
20260904145004 83 270 5.0 16.0 0.00 0.00 0.00 49 1011.6
20260904144504 83 163 5.0 15.0 0.00 0.00 0.00 50 1011.6
20260904144005 83 248 5.0 15.0 0.00 0.00 0.00 49 1011.5
20260904143504 83 248 3.0 10.0 0.00 0.00 0.00 50 1011.6
20260904143004 84 273 6.0 15.0 0.00 0.00 0.00 48 1011.6
20260904142504 84 216 5.0 13.0 0.00 0.00 0.00 50 1011.7
20260904142004 84 238 5.0 14.0 0.00 0.00 0.00 49 1011.7
20260904141504 84 15 3.0 9.0 0.00 0.00 0.00 50 1011.7
20260904141005 84 241 7.0 13.0 0.00 0.00 0.00 50 1011.8
20260904140504 84 257 7.0 17.0 0.00 0.00 0.00 49 1012.0
20260904135504 84 219 5.0 15.0 0.00 0.00 0.00 50 1012.0
20260904135004 84 238 7.0 18.0 0.00 0.00 0.00 49 1012.2
20260904134504 83 232 3.0 12.0 0.00 0.00 0.00 52 1012.2
20260904134005 82 237 6.0 12.0 0.00 0.00 0.00 53 1012.2
20260904133505 83 215 7.0 14.0 0.00 0.00 0.00 51 1012.4
20260904133005 83 141 3.0 20.0 0.00 0.00 0.00 51 1012.4
20260904132504 83 211 5.0 10.0 0.00 0.00 0.00 51 1012.5
20260904132004 83 234 7.0 17.0 0.00 0.00 0.00 51 1012.6
20260904131504 83 231 9.0 21.0 0.00 0.00 0.00 53 1012.7
20260904131005 83 230 4.0 12.0 0.00 0.00 0.00 54 1012.6
20260904130504 82 215 5.0 12.0 0.00 0.00 0.00 54 1012.8
20260904130004 83 202 3.0 8.0 0.00 0.00 0.00 54 1012.8
20260904125504 82 209 7.0 15.0 0.00 0.00 0.00 54 1012.9
20260904125004 82 256 6.0 18.0 0.00 0.00 0.00 54 1013.0
20260904124504 82 215 10.0 17.0 0.00 0.00 0.00 54 1013.1
20260904124004 82 202 6.0 17.0 0.00 0.00 0.00 56 1013.1
20260904123504 83 249 5.0 15.0 0.00 0.00 0.00 54 1013.3
20260904123004 82 238 7.0 20.0 0.00 0.00 0.00 55 1013.3
20260904122004 81 198 6.0 10.0 0.00 0.00 0.00 56 1013.3
20260904121504 81 251 2.0 9.0 0.00 0.00 0.00 57 1013.5
20260904121004 81 222 6.0 13.0 0.00 0.00 0.00 56 1013.6
20260904120006 82 227 6.0 10.0 0.00 0.00 0.00 56 1013.8
20260904115004 81 221 7.0 20.0 0.00 0.00 0.00 55 1013.8
20260904114504 82 228 7.0 12.0 0.00 0.00 0.00 55 1014.0
20260904114004 82 276 2.0 12.0 0.00 0.00 0.00 55 1014.0
20260904113504 81 321 5.0 15.0 0.00 0.00 0.00 56 1014.1
20260904113004 82 268 7.0 15.0 0.00 0.00 0.00 55 1014.1
20260904112505 82 239 4.0 12.0 0.00 0.00 0.00 55 1014.1
20260904112005 81 186 5.0 12.0 0.00 0.00 0.00 55 1014.2
20260904111503 81 217 3.0 14.0 0.00 0.00 0.00 55 1014.2
20260904111005 81 253 3.0 12.0 0.00 0.00 0.00 56 1014.3
20260904110503 81 214 3.0 20.0 0.00 0.00 0.00 56 1014.4
20260904110004 82 236 7.0 16.0 0.00 0.00 0.00 54 1014.5
20260904105004 81 200 5.0 10.0 0.00 0.00 0.00 55 1014.4
20260904104504 81 210 7.0 21.0 0.00 0.00 0.00 56 1014.4
20260904104004 81 214 3.0 8.0 0.00 0.00 0.00 55 1014.5
20260904103504 81 206 5.0 15.0 0.00 0.00 0.00 56 1014.5
20260904102504 80 240 7.0 15.0 0.00 0.00 0.00 56 1014.7
20260904102004 81 216 7.0 16.0 0.00 0.00 0.00 55 1014.6
20260904101005 80 239 4.0 12.0 0.00 0.00 0.00 57 1014.8
20260904095504 79 239 7.0 14.0 0.00 0.00 0.00 58 1015.1
20260904095004 79 232 5.0 16.0 0.00 0.00 0.00 58 1015.2
20260904094005 79 247 7.0 17.0 0.00 0.00 0.00 60 1015.3
20260904093504 79 228 8.0 16.0 0.00 0.00 0.00 62 1015.4
20260904093004 79 201 8.0 13.0 0.00 0.00 0.00 62 1015.4
20260904092004 78 223 4.0 14.0 0.00 0.00 0.00 63 1015.6
20260904091504 78 204 5.0 14.0 0.00 0.00 0.00 64 1015.5
20260904091005 77 242 5.0 13.0 0.00 0.00 0.00 63 1015.6
20260904090503 77 207 7.0 15.0 0.00 0.00 0.00 64 1015.8
20260904085504 76 211 6.0 13.0 0.00 0.00 0.00 64 1015.8
20260904084005 76 216 7.0 13.0 0.00 0.00 0.00 65 1016.1
20260904083504 75 202 6.0 13.0 0.00 0.00 0.00 65 1016.1
20260904082504 75 210 7.0 12.0 0.00 0.00 0.00 66 1016.2
20260904082004 75 210 8.0 14.0 0.00 0.00 0.00 66 1016.2
20260904081504 74 189 6.0 13.0 0.00 0.00 0.00 66 1016.3